Time,TemperatureF,DewpointF,PressureIn,WindDirection,WindDirectionDegrees,WindSpeedMPH,WindSpeedGustMPH,Humidity,HourlyPrecipIn,Conditions,Clouds,dailyrainin,SoftwareType,DateUTC
2013-04-09 00:00:00,69.3,43.2,29.62,SSE,161,9.0,12.3,39,0.00,,,-99.99,FreeWX-Wi 1.01,2013-04-09 04:00:00,
2013-04-09 00:05:00,69.1,43.2,29.62,SSE,160,9.0,11.0,39,0.00,,,-99.99,FreeWX-Wi 1.01,2013-04-09 04:05:00,
2013-04-09 00:10:00,68.9,43.5,29.62,SSE,160,9.0,13.2,40,0.00,,,-99.99,FreeWX-Wi 1.01,2013-04-09 04:10:00,
2013-04-09 00:15:00,68.9,44.2,29.65,SSE,160,9.0,15.4,41,0.00,,,-99.99,FreeWX-Wi 1.01,2013-04-09 04:15:00,
2013-04-09 00:20:00,68.7,44.1,29.65,SSE,161,9.0,11.0,41,0.00,,,-99.99,FreeWX-Wi 1.01,2013-04-09 04:20:00,
2013-04-09 00:25:00,68.5,43.9,29.65,SSE,162,8.0,12.8,41,0.00,,,-99.99,FreeWX-Wi 1.01,2013-04-09 04:25:00,
2013-04-09 00:30:00,68.4,44.4,29.65,SSE,161,8.0,13.2,42,0.00,,,-99.99,FreeWX-Wi 1.01,2013-04-09 04:30:00,
2013-04-09 00:36:00,68.4,44.4,29.65,SSE,162,8.0,12.3,42,0.00,,,-99.99,FreeWX-Wi 1.01,2013-04-09 04:36:00,
2013-04-09 00:41:00,68.2,44.2,29.65,SSE,162,8.0,13.2,42,0.00,,,-99.99,FreeWX-Wi 1.01,2013-04-09 04:41:00,
2013-04-09 00:46:00,68.0,44.6,29.65,SSE,161,8.0,12.8,43,0.00,,,-99.99,FreeWX-Wi 1.01,2013-04-09 04:46:00,
2013-04-09 00:51:00,68.0,44.6,29.65,SSE,161,8.0,10.1,43,0.00,,,-99.99,FreeWX-Wi 1.01,2013-04-09 04:51:00,
2013-04-09 00:56:00,68.0,44.6,29.65,SSE,161,8.0,10.5,43,0.00,,,-99.99,FreeWX-Wi 1.01,2013-04-09 04:56:00,
2013-04-09 01:01:00,67.8,45.1,29.65,SSE,159,7.0,8.1,44,0.00,,,-99.99,FreeWX-Wi 1.01,2013-04-09 05:01:00,
2013-04-09 01:06:00,67.8,45.1,29.65,SSE,158,7.0,10.5,44,0.00,,,-99.99,FreeWX-Wi 1.01,2013-04-09 05:06:00,
2013-04-09 01:11:00,67.8,45.7,29.65,SSE,158,7.0,10.5,45,0.00,,,-99.99,FreeWX-Wi 1.01,2013-04-09 05:11:00,
2013-04-09 01:16:00,67.6,45.5,29.65,SSE,158,6.0,10.1,45,0.00,,,-99.99,FreeWX-Wi 1.01,2013-04-09 05:16:00,
2013-04-09 01:21:00,67.8,45.7,29.65,SSE,157,6.0,10.5,45,0.00,,,-99.99,FreeWX-Wi 1.01,2013-04-09 05:21:00,
2013-04-09 01:26:00,67.8,46.2,29.65,SSE,158,7.0,13.6,46,0.00,,,-99.99,FreeWX-Wi 1.01,2013-04-09 05:26:00,
2013-04-09 01:31:00,68.0,46.4,29.65,SSE,160,7.0,14.5,46,0.00,,,-99.99,FreeWX-Wi 1.01,2013-04-09 05:31:00,
2013-04-09 01:36:00,68.0,46.4,29.65,SSE,161,7.0,12.8,46,0.00,,,-99.99,FreeWX-Wi 1.01,2013-04-09 05:36:00,
2013-04-09 01:41:00,68.2,46.6,29.65,SSE,163,8.0,15.4,46,0.00,,,-99.99,FreeWX-Wi 1.01,2013-04-09 05:41:00,
2013-04-09 01:46:00,68.2,46.6,29.65,SSE,165,9.0,13.2,46,0.00,,,-99.99,FreeWX-Wi 1.01,2013-04-09 05:46:00,
2013-04-09 01:51:00,68.2,46.6,29.65,SSE,167,9.0,17.0,46,0.00,,,-99.99,FreeWX-Wi 1.01,2013-04-09 05:51:00,
2013-04-09 01:56:00,68.4,46.8,29.65,SSE,166,10.0,17.0,46,0.00,,,-99.99,FreeWX-Wi 1.01,2013-04-09 05:56:00,
2013-04-09 02:01:00,68.4,46.8,29.62,SSE,167,10.0,16.3,46,0.00,,,-99.99,FreeWX-Wi 1.01,2013-04-09 06:01:00,
2013-04-09 02:06:00,68.4,46.8,29.62,SSE,168,10.0,15.0,46,0.00,,,-99.99,FreeWX-Wi 1.01,2013-04-09 06:06:00,
2013-04-09 02:11:00,68.4,46.8,29.62,SSE,168,11.0,19.2,46,0.00,,,-99.99,FreeWX-Wi 1.01,2013-04-09 06:11:00,
2013-04-09 02:16:00,68.4,46.8,29.62,SSE,168,11.0,15.4,46,0.00,,,-99.99,FreeWX-Wi 1.01,2013-04-09 06:16:00,
2013-04-09 02:21:00,68.2,46.6,29.62,SSE,168,10.0,14.5,46,0.00,,,-99.99,FreeWX-Wi 1.01,2013-04-09 06:21:00,
2013-04-09 02:26:00,68.2,46.6,29.62,South,169,10.0,13.6,46,0.00,,,-99.99,FreeWX-Wi 1.01,2013-04-09 06:26:00,
2013-04-09 02:31:00,68.4,46.8,29.65,South,170,11.0,16.8,46,0.00,,,-99.99,FreeWX-Wi 1.01,2013-04-09 06:31:00,
2013-04-09 02:36:00,68.4,46.8,29.65,South,169,11.0,13.2,46,0.00,,,-99.99,FreeWX-Wi 1.01,2013-04-09 06:36:00,
2013-04-09 02:46:00,68.4,46.2,29.65,South,169,11.0,17.4,45,0.00,,,-99.99,FreeWX-Wi 1.01,2013-04-09 06:46:00,
2013-04-09 02:51:00,68.4,46.2,29.65,SSE,168,11.0,15.4,45,0.00,,,-99.99,FreeWX-Wi 1.01,2013-04-09 06:51:00,
2013-04-09 02:56:00,68.4,46.2,29.65,SSE,168,11.0,17.4,45,0.00,,,-99.99,FreeWX-Wi 1.01,2013-04-09 06:56:00,
2013-04-09 03:01:00,68.4,46.2,29.65,South,169,12.0,17.4,45,0.00,,,-99.99,FreeWX-Wi 1.01,2013-04-09 07:01:00,
2013-04-09 03:06:00,68.4,46.2,29.65,SSE,168,12.0,14.5,45,0.00,,,-99.99,FreeWX-Wi 1.01,2013-04-09 07:06:00,
2013-04-09 03:11:00,68.4,46.2,29.65,SSE,168,11.0,15.0,45,0.00,,,-99.99,FreeWX-Wi 1.01,2013-04-09 07:11:00,
2013-04-09 03:16:00,68.4,46.2,29.65,South,169,11.0,13.2,45,0.00,,,-99.99,FreeWX-Wi 1.01,2013-04-09 07:16:00,
2013-04-09 03:21:00,68.4,46.2,29.65,South,169,10.0,13.2,45,0.00,,,-99.99,FreeWX-Wi 1.01,2013-04-09 07:21:00,
2013-04-09 03:26:00,68.2,46.0,29.65,South,169,10.0,12.8,45,0.00,,,-99.99,FreeWX-Wi 1.01,2013-04-09 07:26:00,
2013-04-09 03:31:00,68.2,46.0,29.65,South,169,10.0,13.2,45,0.00,,,-99.99,FreeWX-Wi 1.01,2013-04-09 07:31:00,
2013-04-09 03:37:00,68.2,46.0,29.65,South,169,10.0,14.1,45,0.00,,,-99.99,FreeWX-Wi 1.01,2013-04-09 07:37:00,
2013-04-09 03:42:00,68.2,46.0,29.65,South,169,9.0,13.2,45,0.00,,,-99.99,FreeWX-Wi 1.01,2013-04-09 07:42:00,
2013-04-09 03:47:00,68.2,46.0,29.62,South,170,9.0,13.6,45,0.00,,,-99.99,FreeWX-Wi 1.01,2013-04-09 07:47:00,
2013-04-09 03:52:00,68.2,46.0,29.62,South,169,10.0,13.2,45,0.00,,,-99.99,FreeWX-Wi 1.01,2013-04-09 07:52:00,
2013-04-09 03:57:00,68.2,46.0,29.62,South,171,9.0,11.0,45,0.00,,,-99.99,FreeWX-Wi 1.01,2013-04-09 07:57:00,
2013-04-09 04:02:00,68.2,46.0,29.62,South,171,9.0,11.0,45,0.00,,,-99.99,FreeWX-Wi 1.01,2013-04-09 08:02:00,
2013-04-09 04:07:00,68.2,46.0,29.62,South,172,9.0,10.5,45,0.00,,,-99.99,FreeWX-Wi 1.01,2013-04-09 08:07:00,
2013-04-09 04:12:00,68.2,46.0,29.62,South,174,8.0,16.3,45,0.00,,,-99.99,FreeWX-Wi 1.01,2013-04-09 08:12:00,
2013-04-09 04:17:00,68.2,46.0,29.62,South,176,8.0,12.8,45,0.00,,,-99.99,FreeWX-Wi 1.01,2013-04-09 08:17:00,
2013-04-09 04:22:00,68.2,46.0,29.62,South,178,8.0,12.3,45,0.00,,,-99.99,FreeWX-Wi 1.01,2013-04-09 08:22:00,
2013-04-09 04:27:00,68.2,46.0,29.62,South,179,8.0,11.9,45,0.00,,,-99.99,FreeWX-Wi 1.01,2013-04-09 08:27:00,
2013-04-09 04:32:00,68.2,46.0,29.62,South,179,8.0,15.0,45,0.00,,,-99.99,FreeWX-Wi 1.01,2013-04-09 08:32:00,
2013-04-09 04:37:00,68.2,46.0,29.62,South,179,8.0,12.8,45,0.00,,,-99.99,FreeWX-Wi 1.01,2013-04-09 08:37:00,
2013-04-09 04:42:00,68.2,46.0,29.62,South,178,8.0,13.6,45,0.00,,,-99.99,FreeWX-Wi 1.01,2013-04-09 08:42:00,
2013-04-09 04:47:00,68.2,46.6,29.62,South,175,8.0,12.3,46,0.00,,,-99.99,FreeWX-Wi 1.01,2013-04-09 08:47:00,
2013-04-09 04:52:00,68.2,46.6,29.62,South,174,9.0,13.2,46,0.00,,,-99.99,FreeWX-Wi 1.01,2013-04-09 08:52:00,
2013-04-09 04:57:00,68.2,46.6,29.62,South,173,9.0,13.6,46,0.00,,,-99.99,FreeWX-Wi 1.01,2013-04-09 08:57:00,
2013-04-09 05:02:00,68.0,46.4,29.62,South,173,9.0,15.0,46,0.00,,,-99.99,FreeWX-Wi 1.01,2013-04-09 09:02:00,
2013-04-09 05:07:00,67.8,46.8,29.62,South,172,10.0,15.4,47,0.00,,,-99.99,FreeWX-Wi 1.01,2013-04-09 09:07:00,
2013-04-09 05:12:00,67.8,46.8,29.62,South,172,10.0,15.4,47,0.00,,,-99.99,FreeWX-Wi 1.01,2013-04-09 09:12:00,
2013-04-09 05:17:00,67.8,46.8,29.62,South,172,10.0,14.1,47,0.00,,,-99.99,FreeWX-Wi 1.01,2013-04-09 09:17:00,
2013-04-09 05:22:00,67.8,46.8,29.62,South,172,11.0,15.4,47,0.00,,,-99.99,FreeWX-Wi 1.01,2013-04-09 09:22:00,
2013-04-09 05:27:00,68.0,46.9,29.62,South,172,11.0,16.8,47,0.00,,,-99.99,FreeWX-Wi 1.01,2013-04-09 09:27:00,
2013-04-09 05:32:00,68.0,46.9,29.62,South,172,12.0,18.3,47,0.00,,,-99.99,FreeWX-Wi 1.01,2013-04-09 09:32:00,
2013-04-09 05:37:00,68.0,46.4,29.62,South,171,12.0,16.8,46,0.00,,,-99.99,FreeWX-Wi 1.01,2013-04-09 09:37:00,
2013-04-09 05:42:00,68.2,46.6,29.62,South,171,12.0,17.0,46,0.00,,,-99.99,FreeWX-Wi 1.01,2013-04-09 09:42:00,
2013-04-09 05:47:00,68.2,46.0,29.62,South,171,12.0,19.2,45,0.00,,,-99.99,FreeWX-Wi 1.01,2013-04-09 09:47:00,
2013-04-09 05:52:00,68.2,46.0,29.62,South,170,12.0,14.1,45,0.00,,,-99.99,FreeWX-Wi 1.01,2013-04-09 09:52:00,
2013-04-09 05:57:00,68.2,46.0,29.62,South,171,12.0,16.3,45,0.00,,,-99.99,FreeWX-Wi 1.01,2013-04-09 09:57:00,
2013-04-09 06:02:00,68.2,46.0,29.62,South,172,12.0,15.4,45,0.00,,,-99.99,FreeWX-Wi 1.01,2013-04-09 10:02:00,
2013-04-09 06:07:00,68.2,45.5,29.62,South,172,12.0,16.8,44,0.00,,,-99.99,FreeWX-Wi 1.01,2013-04-09 10:07:00,
2013-04-09 06:12:00,68.2,45.5,29.62,South,172,12.0,15.4,44,0.00,,,-99.99,FreeWX-Wi 1.01,2013-04-09 10:12:00,
2013-04-09 06:17:00,68.2,45.5,29.62,South,172,12.0,16.8,44,0.00,,,-99.99,FreeWX-Wi 1.01,2013-04-09 10:17:00,
2013-04-09 06:27:00,68.2,45.5,29.62,South,172,12.0,16.3,44,0.00,,,-99.99,FreeWX-Wi 1.01,2013-04-09 10:27:00,
2013-04-09 06:32:00,68.2,45.5,29.62,South,172,12.0,15.0,44,0.00,,,-99.99,FreeWX-Wi 1.01,2013-04-09 10:32:00,
2013-04-09 06:37:00,68.2,45.5,29.62,South,171,12.0,15.4,44,0.00,,,-99.99,FreeWX-Wi 1.01,2013-04-09 10:37:00,
2013-04-09 06:42:00,68.2,45.5,29.62,South,170,11.0,13.6,44,0.00,,,-99.99,FreeWX-Wi 1.01,2013-04-09 10:42:00,
2013-04-09 06:47:00,68.0,45.3,29.59,SSE,168,11.0,15.4,44,0.00,,,-99.99,FreeWX-Wi 1.01,2013-04-09 10:47:00,
2013-04-09 06:52:00,68.0,45.3,29.59,SSE,168,10.0,13.2,44,0.00,,,-99.99,FreeWX-Wi 1.01,2013-04-09 10:52:00,
2013-04-09 06:57:00,67.8,45.7,29.59,SSE,168,10.0,15.0,45,0.00,,,-99.99,FreeWX-Wi 1.01,2013-04-09 10:57:00,
2013-04-09 07:02:00,67.8,45.7,29.59,SSE,167,10.0,15.0,45,0.00,,,-99.99,FreeWX-Wi 1.01,2013-04-09 11:02:00,
2013-04-09 07:07:00,67.6,45.5,29.59,SSE,167,10.0,13.2,45,0.00,,,-99.99,FreeWX-Wi 1.01,2013-04-09 11:07:00,
2013-04-09 07:12:00,67.6,45.5,29.59,SSE,168,9.0,13.6,45,0.00,,,-99.99,FreeWX-Wi 1.01,2013-04-09 11:12:00,
2013-04-09 07:17:00,67.6,45.5,29.59,South,169,10.0,14.5,45,0.00,,,-99.99,FreeWX-Wi 1.01,2013-04-09 11:17:00,
2013-04-09 07:22:00,67.6,45.5,29.59,South,170,10.0,15.0,45,0.00,,,-99.99,FreeWX-Wi 1.01,2013-04-09 11:22:00,
2013-04-09 07:27:00,67.6,46.0,29.59,South,170,10.0,13.2,46,0.00,,,-99.99,FreeWX-Wi 1.01,2013-04-09 11:27:00,
2013-04-09 07:32:00,67.5,45.9,29.59,South,171,10.0,13.2,46,0.00,,,-99.99,FreeWX-Wi 1.01,2013-04-09 11:32:00,
2013-04-09 07:37:00,67.5,45.9,29.59,South,171,10.0,12.8,46,0.00,,,-99.99,FreeWX-Wi 1.01,2013-04-09 11:37:00,
2013-04-09 07:42:00,67.6,46.0,29.59,South,172,10.0,13.2,46,0.00,,,-99.99,FreeWX-Wi 1.01,2013-04-09 11:42:00,
2013-04-09 07:48:00,67.6,46.0,29.62,South,172,10.0,15.0,46,0.00,,,-99.99,FreeWX-Wi 1.01,2013-04-09 11:48:00,
2013-04-09 07:53:00,67.5,45.9,29.62,South,174,9.0,15.0,46,0.00,,,-99.99,FreeWX-Wi 1.01,2013-04-09 11:53:00,
2013-04-09 07:58:00,67.5,45.3,29.62,South,176,9.0,15.0,45,0.00,,,-99.99,FreeWX-Wi 1.01,2013-04-09 11:58:00,
2013-04-09 08:03:00,67.5,45.3,29.62,South,177,9.0,15.0,45,0.00,,,-99.99,FreeWX-Wi 1.01,2013-04-09 12:03:00,
2013-04-09 08:08:00,67.5,45.3,29.62,South,179,9.0,15.4,45,0.00,,,-99.99,FreeWX-Wi 1.01,2013-04-09 12:08:00,
2013-04-09 08:13:00,67.5,45.3,29.62,South,181,9.0,13.2,45,0.00,,,-99.99,FreeWX-Wi 1.01,2013-04-09 12:13:00,
2013-04-09 08:18:00,67.3,45.1,29.62,South,181,9.0,15.0,45,0.00,,,-99.99,FreeWX-Wi 1.01,2013-04-09 12:18:00,
2013-04-09 08:23:00,67.3,45.1,29.62,South,178,9.0,13.6,45,0.00,,,-99.99,FreeWX-Wi 1.01,2013-04-09 12:23:00,
2013-04-09 08:33:00,67.1,45.0,29.62,South,175,10.0,15.4,45,0.00,,,-99.99,FreeWX-Wi 1.01,2013-04-09 12:33:00,
2013-04-09 08:38:00,66.9,45.0,29.62,South,174,10.0,15.0,45,0.00,,,-99.99,FreeWX-Wi 1.01,2013-04-09 12:38:00,
2013-04-09 08:43:00,66.9,45.0,29.62,South,172,10.0,13.2,45,0.00,,,-99.99,FreeWX-Wi 1.01,2013-04-09 12:43:00,
2013-04-09 08:48:00,66.9,45.0,29.62,South,172,10.0,12.8,45,0.00,,,-99.99,FreeWX-Wi 1.01,2013-04-09 12:48:00,
2013-04-09 08:53:00,66.7,44.8,29.62,South,174,10.0,12.8,45,0.00,,,-99.99,FreeWX-Wi 1.01,2013-04-09 12:53:00,
2013-04-09 08:58:00,66.7,44.8,29.62,South,174,10.0,17.0,45,0.00,,,-99.99,FreeWX-Wi 1.01,2013-04-09 12:58:00,
2013-04-09 09:03:00,66.7,44.8,29.62,South,174,10.0,14.1,45,0.00,,,-99.99,FreeWX-Wi 1.01,2013-04-09 13:03:00,
2013-04-09 09:08:00,66.7,44.8,29.62,South,173,10.0,13.2,45,0.00,,,-99.99,FreeWX-Wi 1.01,2013-04-09 13:08:00,
2013-04-09 09:13:00,66.7,44.8,29.62,South,175,9.0,12.8,45,0.00,,,-99.99,FreeWX-Wi 1.01,2013-04-09 13:13:00,
2013-04-09 09:18:00,66.9,45.0,29.62,South,178,9.0,13.2,45,0.00,,,-99.99,FreeWX-Wi 1.01,2013-04-09 13:18:00,
2013-04-09 09:23:00,66.9,45.0,29.62,South,178,9.0,10.1,45,0.00,,,-99.99,FreeWX-Wi 1.01,2013-04-09 13:23:00,
2013-04-09 09:28:00,66.9,45.0,29.62,South,179,9.0,13.6,45,0.00,,,-99.99,FreeWX-Wi 1.01,2013-04-09 13:28:00,
2013-04-09 09:33:00,67.1,45.0,29.62,South,179,9.0,15.0,45,0.00,,,-99.99,FreeWX-Wi 1.01,2013-04-09 13:33:00,
2013-04-09 09:38:00,67.5,45.3,29.62,South,182,8.0,11.0,45,0.00,,,-99.99,FreeWX-Wi 1.01,2013-04-09 13:38:00,
2013-04-09 09:43:00,68.4,46.2,29.62,South,184,8.0,12.3,45,0.00,,,-99.99,FreeWX-Wi 1.01,2013-04-09 13:43:00,
2013-04-09 09:48:00,69.1,46.2,29.62,South,186,8.0,15.0,44,0.00,,,-99.99,FreeWX-Wi 1.01,2013-04-09 13:48:00,
2013-04-09 09:53:00,69.8,46.2,29.62,South,186,8.0,13.2,43,0.00,,,-99.99,FreeWX-Wi 1.01,2013-04-09 13:53:00,
2013-04-09 09:58:00,70.7,46.4,29.62,South,188,8.0,12.8,42,0.00,,,-99.99,FreeWX-Wi 1.01,2013-04-09 13:58:00,
2013-04-09 10:03:00,71.8,46.2,29.62,SSW,192,7.0,16.3,40,0.00,,,-99.99,FreeWX-Wi 1.01,2013-04-09 14:03:00,
2013-04-09 10:08:00,72.7,45.0,29.62,SSW,192,8.0,10.5,37,0.00,,,-99.99,FreeWX-Wi 1.01,2013-04-09 14:08:00,
2013-04-09 10:13:00,72.9,43.5,29.62,South,191,8.0,12.3,35,0.00,,,-99.99,FreeWX-Wi 1.01,2013-04-09 14:13:00,
2013-04-09 10:18:00,72.9,42.8,29.62,SSW,192,8.0,12.3,34,0.00,,,-99.99,FreeWX-Wi 1.01,2013-04-09 14:18:00,
2013-04-09 10:23:00,73.4,42.6,29.62,SSW,196,8.0,11.4,33,0.00,,,-99.99,FreeWX-Wi 1.01,2013-04-09 14:23:00,
2013-04-09 10:34:00,74.7,42.8,29.62,SSW,200,7.0,15.4,32,0.00,,,-99.99,FreeWX-Wi 1.01,2013-04-09 14:34:00,
2013-04-09 10:39:00,75.2,42.4,29.62,SSW,202,8.0,16.8,31,0.00,,,-99.99,FreeWX-Wi 1.01,2013-04-09 14:39:00,
2013-04-09 10:44:00,75.9,43.2,29.62,SSW,205,8.0,13.6,31,0.00,,,-99.99,FreeWX-Wi 1.01,2013-04-09 14:44:00,
2013-04-09 10:49:00,76.6,41.9,29.62,SSW,208,8.0,13.6,29,0.00,,,-99.99,FreeWX-Wi 1.01,2013-04-09 14:49:00,
2013-04-09 10:54:00,77.0,40.5,29.62,SSW,207,8.0,15.0,27,0.00,,,-99.99,FreeWX-Wi 1.01,2013-04-09 14:54:00,
2013-04-09 11:04:00,77.9,40.3,29.65,SSW,209,9.0,15.0,26,0.00,,,-99.99,FreeWX-Wi 1.01,2013-04-09 15:04:00,
2013-04-09 11:09:00,78.8,39.9,29.65,SSW,208,9.0,18.8,25,0.00,,,-99.99,FreeWX-Wi 1.01,2013-04-09 15:09:00,
2013-04-09 11:14:00,79.0,39.0,29.65,SSW,205,9.0,17.0,24,0.00,,,-99.99,FreeWX-Wi 1.01,2013-04-09 15:14:00,
2013-04-09 11:19:00,79.3,38.3,29.65,SSW,208,9.0,15.4,23,0.00,,,-99.99,FreeWX-Wi 1.01,2013-04-09 15:19:00,
2013-04-09 11:24:00,79.9,38.8,29.65,SSW,211,9.0,17.4,23,0.00,,,-99.99,FreeWX-Wi 1.01,2013-04-09 15:24:00,
2013-04-09 11:29:00,80.2,39.0,29.65,SSW,211,9.0,17.0,23,0.00,,,-99.99,FreeWX-Wi 1.01,2013-04-09 15:29:00,
2013-04-09 11:34:00,80.8,38.3,29.65,SSW,211,9.0,15.9,22,0.00,,,-99.99,FreeWX-Wi 1.01,2013-04-09 15:34:00,
2013-04-09 11:39:00,81.5,39.0,29.65,SSW,211,9.0,12.8,22,0.00,,,-99.99,FreeWX-Wi 1.01,2013-04-09 15:39:00,
2013-04-09 11:44:00,82.2,39.6,29.65,SW,215,8.0,10.5,22,0.00,,,-99.99,FreeWX-Wi 1.01,2013-04-09 15:44:00,
2013-04-09 11:49:00,82.9,39.0,29.65,SW,217,8.0,14.5,21,0.00,,,-99.99,FreeWX-Wi 1.01,2013-04-09 15:49:00,
2013-04-09 11:54:00,83.1,39.2,29.65,SW,214,8.0,15.0,21,0.00,,,-99.99,FreeWX-Wi 1.01,2013-04-09 15:54:00,
2013-04-09 11:59:00,83.5,38.1,29.65,SW,214,8.0,14.5,20,0.00,,,-99.99,FreeWX-Wi 1.01,2013-04-09 15:59:00,
2013-04-09 12:10:00,83.7,38.3,29.65,SW,217,8.0,13.2,20,0.00,,,-99.99,FreeWX-Wi 1.01,2013-04-09 16:10:00,
2013-04-09 12:15:00,84.0,38.7,29.65,SW,214,9.0,15.0,20,0.00,,,-99.99,FreeWX-Wi 1.01,2013-04-09 16:15:00,
2013-04-09 12:20:00,84.6,39.0,29.65,SSW,210,9.0,12.8,20,0.00,,,-99.99,FreeWX-Wi 1.01,2013-04-09 16:20:00,
2013-04-09 12:25:00,84.6,37.8,29.65,SSW,208,8.0,12.8,19,0.00,,,-99.99,FreeWX-Wi 1.01,2013-04-09 16:25:00,
2013-04-09 12:30:00,85.3,38.3,29.65,SSW,210,8.0,16.3,19,0.00,,,-99.99,FreeWX-Wi 1.01,2013-04-09 16:30:00,
2013-04-09 12:35:00,85.6,38.7,29.65,SSW,208,8.0,15.0,19,0.00,,,-99.99,FreeWX-Wi 1.01,2013-04-09 16:35:00,
2013-04-09 12:40:00,85.8,38.8,29.65,SSW,208,8.0,14.5,19,0.00,,,-99.99,FreeWX-Wi 1.01,2013-04-09 16:40:00,
2013-04-09 12:45:00,86.4,39.2,29.65,SSW,210,8.0,13.2,19,0.00,,,-99.99,FreeWX-Wi 1.01,2013-04-09 16:45:00,
2013-04-09 12:50:00,86.9,39.6,29.65,SSW,211,8.0,13.2,19,0.00,,,-99.99,FreeWX-Wi 1.01,2013-04-09 16:50:00,
2013-04-09 12:55:00,87.1,38.5,29.65,SSW,213,8.0,15.4,18,0.00,,,-99.99,FreeWX-Wi 1.01,2013-04-09 16:55:00,
2013-04-09 13:00:00,87.1,38.5,29.65,SSW,211,8.0,15.4,18,0.00,,,-99.99,FreeWX-Wi 1.01,2013-04-09 17:00:00,
2013-04-09 13:05:00,87.1,38.5,29.65,SSW,212,8.0,15.4,18,0.00,,,-99.99,FreeWX-Wi 1.01,2013-04-09 17:05:00,
2013-04-09 13:10:00,87.1,38.5,29.65,SW,214,8.0,13.2,18,0.00,,,-99.99,FreeWX-Wi 1.01,2013-04-09 17:10:00,
2013-04-09 13:15:00,87.6,38.8,29.65,SW,214,8.0,12.8,18,0.00,,,-99.99,FreeWX-Wi 1.01,2013-04-09 17:15:00,
2013-04-09 13:53:00,88.9,39.9,29.62,SSW,205,9.0,14.5,18,0.00,,,-99.99,FreeWX-Wi 1.01,2013-04-09 17:53:00,
2013-04-09 13:58:00,89.1,35.4,29.62,SSW,209,8.0,11.9,15,0.00,,,-99.99,FreeWX-Wi 1.01,2013-04-09 17:58:00,
2013-04-09 14:03:00,89.2,35.6,29.62,SSW,212,8.0,12.8,15,0.00,,,-99.99,FreeWX-Wi 1.01,2013-04-09 18:03:00,
2013-04-09 14:08:00,89.4,35.6,29.62,SSW,209,8.0,14.1,15,0.00,,,-99.99,FreeWX-Wi 1.01,2013-04-09 18:08:00,
2013-04-09 14:13:00,89.8,36.0,29.62,SSW,210,8.0,15.0,15,0.00,,,-99.99,FreeWX-Wi 1.01,2013-04-09 18:13:00,
2013-04-09 14:18:00,90.1,36.1,29.62,SW,215,7.0,8.3,15,0.00,,,-99.99,FreeWX-Wi 1.01,2013-04-09 18:18:00,
2013-04-09 14:23:00,90.7,36.7,29.62,SW,218,7.0,16.3,15,0.00,,,-99.99,FreeWX-Wi 1.01,2013-04-09 18:23:00,
2013-04-09 14:28:00,91.2,37.0,29.62,SW,218,7.0,12.8,15,0.00,,,-99.99,FreeWX-Wi 1.01,2013-04-09 18:28:00,
2013-04-09 14:33:00,91.6,35.6,29.62,SW,218,7.0,15.0,14,0.00,,,-99.99,FreeWX-Wi 1.01,2013-04-09 18:33:00,
2013-04-09 14:38:00,92.1,36.0,29.62,SW,223,6.0,8.1,14,0.00,,,-99.99,FreeWX-Wi 1.01,2013-04-09 18:38:00,
2013-04-09 14:43:00,92.5,36.3,29.62,SW,227,6.0,12.3,14,0.00,,,-99.99,FreeWX-Wi 1.01,2013-04-09 18:43:00,
2013-04-09 14:48:00,93.2,30.9,29.59,SW,229,6.0,10.5,11,0.00,,,-99.99,FreeWX-Wi 1.01,2013-04-09 18:48:00,
2013-04-09 14:55:00,93.2,30.9,29.59,SW,230,6.0,11.9,11,0.00,,,-99.99,FreeWX-Wi 1.01,2013-04-09 18:55:00,
2013-04-09 15:00:00,93.2,30.9,29.59,SW,230,6.0,12.8,11,0.00,,,-99.99,FreeWX-Wi 1.01,2013-04-09 19:00:00,
2013-04-09 15:05:00,92.7,32.5,29.59,SW,230,7.0,14.5,12,0.00,,,-99.99,FreeWX-Wi 1.01,2013-04-09 19:05:00,
2013-04-09 15:10:00,92.8,32.7,29.59,SW,233,7.0,15.0,12,0.00,,,-99.99,FreeWX-Wi 1.01,2013-04-09 19:10:00,
2013-04-09 15:15:00,93.0,32.9,29.59,SW,228,7.0,10.5,12,0.00,,,-99.99,FreeWX-Wi 1.01,2013-04-09 19:15:00,
2013-04-09 15:20:00,93.0,32.9,29.59,SW,231,7.0,13.2,12,0.00,,,-99.99,FreeWX-Wi 1.01,2013-04-09 19:20:00,
2013-04-09 15:25:00,93.0,32.9,29.59,SW,229,7.0,10.1,12,0.00,,,-99.99,FreeWX-Wi 1.01,2013-04-09 19:25:00,
2013-04-09 15:30:00,93.4,30.9,29.59,WSW,237,7.0,11.9,11,0.00,,,-99.99,FreeWX-Wi 1.01,2013-04-09 19:30:00,
2013-04-09 15:40:00,93.4,30.9,29.59,SW,234,6.0,11.0,11,0.00,,,-99.99,FreeWX-Wi 1.01,2013-04-09 19:40:00,
2013-04-09 15:45:00,93.6,31.1,29.59,WSW,241,6.0,15.4,11,0.00,,,-99.99,FreeWX-Wi 1.01,2013-04-09 19:45:00,
2013-04-09 15:50:00,93.7,31.3,29.56,WSW,242,7.0,14.1,11,0.00,,,-99.99,FreeWX-Wi 1.01,2013-04-09 19:50:00,
2013-04-09 15:55:00,93.6,31.1,29.56,WSW,242,7.0,13.2,11,0.00,,,-99.99,FreeWX-Wi 1.01,2013-04-09 19:55:00,
2013-04-09 16:00:00,93.7,31.3,29.56,WSW,239,7.0,17.0,11,0.00,,,-99.99,FreeWX-Wi 1.01,2013-04-09 20:00:00,
2013-04-09 16:05:00,93.6,31.1,29.56,WSW,243,7.0,13.2,11,0.00,,,-99.99,FreeWX-Wi 1.01,2013-04-09 20:05:00,
2013-04-09 16:10:00,93.4,30.9,29.56,WSW,242,7.0,10.5,11,0.00,,,-99.99,FreeWX-Wi 1.01,2013-04-09 20:10:00,
2013-04-09 16:15:00,93.6,31.1,29.56,WSW,240,7.0,13.2,11,0.00,,,-99.99,FreeWX-Wi 1.01,2013-04-09 20:15:00,
2013-04-09 16:20:00,93.6,31.1,29.56,WSW,246,7.0,13.2,11,0.00,,,-99.99,FreeWX-Wi 1.01,2013-04-09 20:20:00,
2013-04-09 16:25:00,93.7,31.3,29.56,WSW,246,7.0,14.1,11,0.00,,,-99.99,FreeWX-Wi 1.01,2013-04-09 20:25:00,
2013-04-09 16:30:00,93.4,30.9,29.56,WSW,250,7.0,12.3,11,0.00,,,-99.99,FreeWX-Wi 1.01,2013-04-09 20:30:00,
2013-04-09 16:35:00,93.4,30.9,29.56,WSW,248,7.0,8.7,11,0.00,,,-99.99,FreeWX-Wi 1.01,2013-04-09 20:35:00,
2013-04-09 16:40:00,93.6,31.1,29.56,WSW,242,6.0,10.1,11,0.00,,,-99.99,FreeWX-Wi 1.01,2013-04-09 20:40:00,
2013-04-09 16:46:00,93.9,31.5,29.56,WSW,240,6.0,9.2,11,0.00,,,-99.99,FreeWX-Wi 1.01,2013-04-09 20:46:00,
2013-04-09 16:51:00,93.7,31.3,29.56,SW,233,6.0,11.0,11,0.00,,,-99.99,FreeWX-Wi 1.01,2013-04-09 20:51:00,
2013-04-09 16:56:00,93.9,31.5,29.56,SW,230,6.0,14.5,11,0.00,,,-99.99,FreeWX-Wi 1.01,2013-04-09 20:56:00,
2013-04-09 17:01:00,93.9,31.5,29.56,SW,228,6.0,15.0,11,0.00,,,-99.99,FreeWX-Wi 1.01,2013-04-09 21:01:00,
2013-04-09 17:06:00,93.7,31.3,29.56,SW,231,6.0,12.3,11,0.00,,,-99.99,FreeWX-Wi 1.01,2013-04-09 21:06:00,
2013-04-09 17:11:00,93.6,31.1,29.56,SW,225,6.0,8.7,11,0.00,,,-99.99,FreeWX-Wi 1.01,2013-04-09 21:11:00,
2013-04-09 17:16:00,93.6,31.1,29.56,SW,224,6.0,17.0,11,0.00,,,-99.99,FreeWX-Wi 1.01,2013-04-09 21:16:00,
2013-04-09 17:21:00,93.6,31.1,29.56,SW,223,6.0,18.3,11,0.00,,,-99.99,FreeWX-Wi 1.01,2013-04-09 21:21:00,
2013-04-09 17:26:00,93.0,32.9,29.56,SW,220,6.0,15.4,12,0.00,,,-99.99,FreeWX-Wi 1.01,2013-04-09 21:26:00,
2013-04-09 17:31:00,92.8,32.7,29.53,SW,214,7.0,12.3,12,0.00,,,-99.99,FreeWX-Wi 1.01,2013-04-09 21:31:00,
2013-04-09 17:36:00,92.8,32.7,29.53,SSW,213,7.0,10.1,12,0.00,,,-99.99,FreeWX-Wi 1.01,2013-04-09 21:36:00,
2013-04-09 17:47:00,92.8,32.7,29.53,SSW,211,7.0,11.0,12,0.00,,,-99.99,FreeWX-Wi 1.01,2013-04-09 21:47:00,
2013-04-09 17:52:00,92.8,32.7,29.53,SSW,212,7.0,14.5,12,0.00,,,-99.99,FreeWX-Wi 1.01,2013-04-09 21:52:00,
2013-04-09 17:57:00,92.8,32.7,29.53,SW,214,7.0,11.4,12,0.00,,,-99.99,FreeWX-Wi 1.01,2013-04-09 21:57:00,
2013-04-09 18:02:00,92.8,32.7,29.53,SW,216,6.0,9.2,12,0.00,,,-99.99,FreeWX-Wi 1.01,2013-04-09 22:02:00,
2013-04-09 18:07:00,93.0,32.9,29.53,SW,214,7.0,14.5,12,0.00,,,-99.99,FreeWX-Wi 1.01,2013-04-09 22:07:00,
2013-04-09 18:12:00,92.7,32.5,29.53,SSW,213,7.0,12.3,12,0.00,,,-99.99,FreeWX-Wi 1.01,2013-04-09 22:12:00,
2013-04-09 18:17:00,92.3,32.4,29.53,SSW,213,7.0,14.1,12,0.00,,,-99.99,FreeWX-Wi 1.01,2013-04-09 22:17:00,
2013-04-09 18:22:00,92.1,32.2,29.53,SSW,213,6.0,10.5,12,0.00,,,-99.99,FreeWX-Wi 1.01,2013-04-09 22:22:00,
2013-04-09 18:27:00,91.9,32.0,29.53,SSW,208,7.0,8.7,12,0.00,,,-99.99,FreeWX-Wi 1.01,2013-04-09 22:27:00,
2013-04-09 18:32:00,92.1,32.2,29.53,SSW,209,6.0,11.0,12,0.00,,,-99.99,FreeWX-Wi 1.01,2013-04-09 22:32:00,
2013-04-09 18:37:00,92.3,32.4,29.53,SW,215,6.0,10.1,12,0.00,,,-99.99,FreeWX-Wi 1.01,2013-04-09 22:37:00,
2013-04-09 18:42:00,92.3,32.4,29.53,SW,215,6.0,12.8,12,0.00,,,-99.99,FreeWX-Wi 1.01,2013-04-09 22:42:00,
2013-04-09 18:47:00,91.9,32.0,29.53,SSW,211,6.0,15.0,12,0.00,,,-99.99,FreeWX-Wi 1.01,2013-04-09 22:47:00,
2013-04-09 18:52:00,91.8,31.8,29.53,SSW,210,7.0,15.4,12,0.00,,,-99.99,FreeWX-Wi 1.01,2013-04-09 22:52:00,
2013-04-09 18:57:00,91.6,31.8,29.53,SSW,210,7.0,13.2,12,0.00,,,-99.99,FreeWX-Wi 1.01,2013-04-09 22:57:00,
2013-04-09 19:02:00,91.6,31.8,29.53,SSW,205,7.0,13.2,12,0.00,,,-99.99,FreeWX-Wi 1.01,2013-04-09 23:02:00,
2013-04-09 19:07:00,91.6,31.8,29.53,SSW,206,7.0,11.0,12,0.00,,,-99.99,FreeWX-Wi 1.01,2013-04-09 23:07:00,
2013-04-09 19:12:00,91.6,31.8,29.53,SSW,208,7.0,12.3,12,0.00,,,-99.99,FreeWX-Wi 1.01,2013-04-09 23:12:00,
2013-04-09 19:17:00,91.2,31.5,29.53,SSW,209,7.0,10.1,12,0.00,,,-99.99,FreeWX-Wi 1.01,2013-04-09 23:17:00,
2013-04-09 19:22:00,91.0,31.3,29.53,SSW,211,6.0,12.8,12,0.00,,,-99.99,FreeWX-Wi 1.01,2013-04-09 23:22:00,
2013-04-09 19:27:00,91.0,31.3,29.53,SW,216,6.0,9.6,12,0.00,,,-99.99,FreeWX-Wi 1.01,2013-04-09 23:27:00,
2013-04-09 19:32:00,90.9,31.3,29.53,SW,220,6.0,11.0,12,0.00,,,-99.99,FreeWX-Wi 1.01,2013-04-09 23:32:00,
2013-04-09 19:37:00,90.5,30.9,29.53,SW,217,6.0,12.8,12,0.00,,,-99.99,FreeWX-Wi 1.01,2013-04-09 23:37:00,
2013-04-09 19:42:00,90.1,30.7,29.53,SW,217,6.0,11.0,12,0.00,,,-99.99,FreeWX-Wi 1.01,2013-04-09 23:42:00,
2013-04-09 19:47:00,89.8,30.4,29.56,SW,217,6.0,8.7,12,0.00,,,-99.99,FreeWX-Wi 1.01,2013-04-09 23:47:00,
2013-04-09 19:52:00,89.4,32.0,29.56,SSW,211,6.0,11.4,13,0.00,,,-99.99,FreeWX-Wi 1.01,2013-04-09 23:52:00,
2013-04-09 19:58:00,89.2,32.0,29.56,SSW,200,7.0,12.8,13,0.00,,,-99.99,FreeWX-Wi 1.01,2013-04-09 23:58:00,
2013-04-09 20:03:00,88.9,31.6,29.56,SSW,194,7.0,8.7,13,0.00,,,-99.99,FreeWX-Wi 1.01,2013-04-10 00:03:00,
2013-04-09 20:08:00,88.5,31.5,29.56,SSW,194,6.0,11.0,13,0.00,,,-99.99,FreeWX-Wi 1.01,2013-04-10 00:08:00,
2013-04-09 20:13:00,88.2,31.1,29.56,SSW,193,6.0,8.3,13,0.00,,,-99.99,FreeWX-Wi 1.01,2013-04-10 00:13:00,
2013-04-09 20:18:00,87.8,30.7,29.56,SSW,196,6.0,6.3,13,0.00,,,-99.99,FreeWX-Wi 1.01,2013-04-10 00:18:00,
2013-04-09 20:23:00,87.4,30.6,29.56,SSW,201,4.0,4.5,13,0.00,,,-99.99,FreeWX-Wi 1.01,2013-04-10 00:23:00,
2013-04-09 20:28:00,87.1,30.2,29.56,SSW,207,3.0,0.0,13,0.00,,,-99.99,FreeWX-Wi 1.01,2013-04-10 00:28:00,
2013-04-09 20:33:00,85.6,29.1,29.59,SW,215,3.0,11.4,13,0.00,,,-99.99,FreeWX-Wi 1.01,2013-04-10 00:33:00,
2013-04-09 20:38:00,78.4,27.0,29.59,SW,224,4.0,15.4,15,0.00,,,-99.99,FreeWX-Wi 1.01,2013-04-10 00:38:00,
2013-04-09 20:43:00,73.6,19.8,29.59,West,259,5.0,25.1,13,0.00,,,-99.99,FreeWX-Wi 1.01,2013-04-10 00:43:00,
2013-04-09 20:48:00,70.9,19.4,29.59,North,357,8.0,22.8,14,0.00,,,-99.99,FreeWX-Wi 1.01,2013-04-10 00:48:00,
2013-04-09 20:53:00,69.1,19.6,29.59,NNE,19,10.0,22.8,15,0.00,,,-99.99,FreeWX-Wi 1.01,2013-04-10 00:53:00,
2013-04-09 20:58:00,67.3,18.1,29.59,NNE,27,12.0,19.7,15,0.00,,,-99.99,FreeWX-Wi 1.01,2013-04-10 00:58:00,
2013-04-09 21:03:00,66.2,17.2,29.62,NNE,31,13.0,20.6,15,0.00,,,-99.99,FreeWX-Wi 1.01,2013-04-10 01:03:00,
2013-04-09 21:08:00,65.3,20.7,29.62,NNE,33,14.0,25.5,18,0.00,,,-99.99,FreeWX-Wi 1.01,2013-04-10 01:08:00,
2013-04-09 21:13:00,64.4,19.9,29.62,NE,35,14.0,18.8,18,0.00,,,-99.99,FreeWX-Wi 1.01,2013-04-10 01:13:00,
2013-04-09 21:18:00,63.5,19.2,29.62,NE,34,14.0,18.8,18,0.00,,,-99.99,FreeWX-Wi 1.01,2013-04-10 01:18:00,
2013-04-09 21:23:00,62.4,15.6,29.62,NNE,33,14.0,23.7,16,0.00,,,-99.99,FreeWX-Wi 1.01,2013-04-10 01:23:00,
2013-04-09 21:28:00,60.8,14.4,29.62,NNE,31,15.0,23.3,16,0.00,,,-99.99,FreeWX-Wi 1.01,2013-04-10 01:28:00,
2013-04-09 21:33:00,59.7,14.9,29.62,NNE,31,15.0,24.2,17,0.00,,,-99.99,FreeWX-Wi 1.01,2013-04-10 01:33:00,
2013-04-09 21:38:00,58.8,14.2,29.62,NNE,30,16.0,24.6,17,0.00,,,-99.99,FreeWX-Wi 1.01,2013-04-10 01:38:00,
2013-04-09 21:43:00,57.7,13.3,29.62,NNE,28,17.0,28.9,17,0.00,,,-99.99,FreeWX-Wi 1.01,2013-04-10 01:43:00,
2013-04-09 21:48:00,55.9,11.8,29.65,NNE,28,18.0,29.3,17,0.00,,,-99.99,FreeWX-Wi 1.01,2013-04-10 01:48:00,
2013-04-09 21:53:00,54.7,12.0,29.65,NNE,28,19.0,32.4,18,0.00,,,-99.99,FreeWX-Wi 1.01,2013-04-10 01:53:00,
2013-04-09 21:58:00,53.6,11.1,29.65,NNE,26,20.0,27.5,18,0.00,,,-99.99,FreeWX-Wi 1.01,2013-04-10 01:58:00,
2013-04-09 22:03:00,53.2,10.9,29.68,NNE,26,20.0,30.2,18,0.00,,,-99.99,FreeWX-Wi 1.01,2013-04-10 02:03:00,
2013-04-09 22:08:00,52.9,10.6,29.68,NNE,24,21.0,25.1,18,0.00,,,-99.99,FreeWX-Wi 1.01,2013-04-10 02:08:00,
2013-04-09 22:13:00,52.3,10.0,29.68,NNE,25,20.0,25.5,18,0.00,,,-99.99,FreeWX-Wi 1.01,2013-04-10 02:13:00,
2013-04-09 22:18:00,51.1,10.2,29.68,NNE,22,20.0,26.2,19,0.00,,,-99.99,FreeWX-Wi 1.01,2013-04-10 02:18:00,
2013-04-09 22:23:00,50.7,10.0,29.68,NNE,22,19.0,23.7,19,0.00,,,-99.99,FreeWX-Wi 1.01,2013-04-10 02:23:00,
2013-04-09 22:28:00,50.2,9.5,29.68,NNE,21,18.0,24.6,19,0.00,,,-99.99,FreeWX-Wi 1.01,2013-04-10 02:28:00,
2013-04-09 22:33:00,49.1,8.6,29.71,NNE,19,19.0,32.0,19,0.00,,,-99.99,FreeWX-Wi 1.01,2013-04-10 02:33:00,
2013-04-09 22:38:00,48.7,8.4,29.71,NNE,20,19.0,25.5,19,0.00,,,-99.99,FreeWX-Wi 1.01,2013-04-10 02:38:00,
2013-04-09 22:43:00,48.4,8.1,29.71,NNE,18,19.0,25.1,19,0.00,,,-99.99,FreeWX-Wi 1.01,2013-04-10 02:43:00,
2013-04-09 22:48:00,47.8,10.9,29.71,NNE,18,19.0,24.6,22,0.00,,,-99.99,FreeWX-Wi 1.01,2013-04-10 02:48:00,
2013-04-09 22:53:00,47.5,10.6,29.71,NNE,16,19.0,26.6,22,0.00,,,-99.99,FreeWX-Wi 1.01,2013-04-10 02:53:00,
2013-04-09 22:58:00,47.1,10.2,29.71,NNE,16,20.0,28.4,22,0.00,,,-99.99,FreeWX-Wi 1.01,2013-04-10 02:58:00,
2013-04-09 23:03:00,47.1,10.2,29.71,NNE,19,20.0,28.9,22,0.00,,,-99.99,FreeWX-Wi 1.01,2013-04-10 03:03:00,
2013-04-09 23:08:00,46.8,10.0,29.71,NNE,17,20.0,28.4,22,0.00,,,-99.99,FreeWX-Wi 1.01,2013-04-10 03:08:00,
2013-04-09 23:13:00,46.8,10.0,29.71,NNE,19,19.0,26.2,22,0.00,,,-99.99,FreeWX-Wi 1.01,2013-04-10 03:13:00,
2013-04-09 23:18:00,46.6,9.9,29.74,NNE,19,19.0,25.7,22,0.00,,,-99.99,FreeWX-Wi 1.01,2013-04-10 03:18:00,
2013-04-09 23:23:00,46.4,9.7,29.74,NNE,21,18.0,20.6,22,0.00,,,-99.99,FreeWX-Wi 1.01,2013-04-10 03:23:00,
2013-04-09 23:28:00,46.6,9.9,29.74,NNE,22,17.0,19.2,22,0.00,,,-99.99,FreeWX-Wi 1.01,2013-04-10 03:28:00,
2013-04-09 23:33:00,46.6,9.9,29.74,NNE,21,16.0,25.1,22,0.00,,,-99.99,FreeWX-Wi 1.01,2013-04-10 03:33:00,
2013-04-09 23:38:00,46.4,11.7,29.74,NNE,21,15.0,22.8,24,0.00,,,-99.99,FreeWX-Wi 1.01,2013-04-10 03:38:00,
2013-04-09 23:43:00,46.4,11.7,29.74,NNE,19,14.0,17.4,24,0.00,,,-99.99,FreeWX-Wi 1.01,2013-04-10 03:43:00,
2013-04-09 23:48:00,46.4,11.7,29.76,NNE,22,14.0,25.7,24,0.00,,,-99.99,FreeWX-Wi 1.01,2013-04-10 03:48:00,
2013-04-09 23:53:00,46.0,12.2,29.76,NNE,20,15.0,28.4,25,0.00,,,-99.99,FreeWX-Wi 1.01,2013-04-10 03:53:00,
2013-04-09 23:58:00,46.2,12.4,29.76,NNE,19,15.0,23.7,25,0.00,,,-99.99,FreeWX-Wi 1.01,2013-04-10 03:58:00,